This is the latest recevied weather packets stored in our database for station/object K8JCL-13. If no packets are shown the sender has not sent any weather packets the latest 10 day(s).
| Time | Temp. | Humidity | Pressure | Rain* | Wind** | Luminosity | Snow |
|---|---|---|---|---|---|---|---|
| 1777841554 | 11.67° C | 65% | 1016.2 hPa | 0 mm | - | 33 W/m² | - |
| 1777841250 | 11.67° C | 64% | 1016.3 hPa | 0 mm | - | 30 W/m² | - |
| 1777840948 | 12.78° C | 61% | 1016.2 hPa | 0 mm | - | 29 W/m² | - |
| 1777840645 | 14.44° C | 51% | 1016.3 hPa | 0 mm | - | 37 W/m² | - |
| 1777840342 | 14.44° C | 45% | 1015.7 hPa | 0 mm | - | 43 W/m² | - |
| 1777840039 | 15° C | 44% | 1015.6 hPa | 0 mm | - | 46 W/m² | - |
| 1777839737 | 15° C | 46% | 1015.4 hPa | 0 mm | - | 56 W/m² | - |
| 1777839435 | 15° C | 44% | 1015.4 hPa | 0 mm | - | 74 W/m² | - |
| 1777839132 | 15° C | 44% | 1015.5 hPa | 0 mm | - | 79 W/m² | - |
| 1777838828 | 15.56° C | 44% | 1015.3 hPa | 0 mm | - | 93 W/m² | - |
| 1777838525 | 15.56° C | 43% | 1015.1 hPa | 0 mm | - | 118 W/m² | - |
| 1777838222 | 15.56° C | 41% | 1015.4 hPa | 0 mm | - | 129 W/m² | - |
| 1777837919 | 16.11° C | 44% | 1015.3 hPa | 0 mm | - | 167 W/m² | - |
| 1777837616 | 16.11° C | 41% | 1015.6 hPa | 0 mm | - | 223 W/m² | - |
| 1777837311 | 15.56° C | 42% | 1015.4 hPa | 0 mm | - | 219 W/m² | - |
| 1777837008 | 16.11° C | 43% | 1015.6 hPa | 0 mm | - | 195 W/m² | - |
| 1777836704 | 16.67° C | 42% | 1015.7 hPa | 0 mm | - | 263 W/m² | - |
| 1777836400 | 17.78° C | 41% | 1015.8 hPa | 0 mm | - | 434 W/m² | - |
| 1777836095 | 17.22° C | 43% | 1015.8 hPa | 0 mm | - | 613 W/m² | - |
| 1777835792 | 17.22° C | 38% | 1016 hPa | 0 mm | - | 207 W/m² | - |
| 1777835489 | 17.22° C | 40% | 1015.9 hPa | 0 mm | - | 579 W/m² | - |
| 1777835186 | 17.22° C | 41% | 1016.4 hPa | 0 mm | - | 598 W/m² | - |
| 1777834883 | 17.22° C | 42% | 1016.2 hPa | 0 mm | - | 633 W/m² | - |
| 1777834580 | 17.22° C | 40% | 1016.2 hPa | 0 mm | - | 226 W/m² | - |
| 1777834275 | 16.67° C | 42% | 1016.4 hPa | 0 mm | - | 212 W/m² | - |
* Rain latest hour (hover to see other rain measurements)
** Current wind speed in m/s (hover to see current wind gust speed)